Location: Im Fang
(46.6019°N, 7.2397°E)
Time: 22:50:44
(UTC+00:00)

Cosmos 407 Rocket - Pass Details

Date: 08 December 2019
Orbit: 743 x 787 km, 74.0° (Epoch: 24 January)

Event Time Altitude Azimuth Distance (km) Brightness Sun altitude
Exits shadow 04:29:53 72° 255° (WSW) 829 3.4 -25.1°
Maximum altitude 04:29:54 72° 252° (WSW) 829 3.4 -25.1°
Drops below altitude 10° 04:35:13 10° 168° (SSE) 2,342 6.2 -24.2°
Sets 04:37:36 0° 167° (SSE) 3,266 7.0 -23.8°
